Погода в Крюково

Россия / Ярославская область     57°50′04″N   38°14′59″E
В апреле 2022 года жителям России запретили посещать сайт meteo.paraplan.net по решению Генеральной прокуратуры. Аудитория сайта уменьшилась в 10 раз. Владельцы сайта не видят смысла в поддержке погодного сервера в таких условиях. Сайт будет закрыт в октябре.
темп.,
°C
ветер,
м/с
пор.,
м/с
влажн.,
%
обл.,
%
осадки,
мм/ч
давл.,
гПа
погр.,
м
30 сентября, пт
пт3000:00+7ююв389499 0.0 1013143
03:00+8ю51390100 0.0 1013352
06:00+8ю51391100 0.0 1013346
09:00+10ююв51185100 0.0 1014405
12:00+12ю4979100 0.0 1014595
15:00+11ю51194100 3.3 1014550
18:00+11ююз3896100 0.6 1015390
21:00+10юз2598100 1.4 1015220
1 октября, сб
сб100:00+10юз2297100 0.0 101647
03:00+9зсз239567 0.0 101770
06:00+7ссз0194100 0.0 101710
09:00+9св1184100 0.0 1017116
12:00+12всв2274100 0.0 1016506
15:00+12св2484100 0.1 1014176
18:00+11всв3893100 0.1 1012318
21:00+11всв3799100 2.3 1009289
2 октября, вс
вс200:00+12вюв4999100 0.3 1005360
03:00+12юв4998100 7.3 1002450
06:00+11юз61195100 7.0 1001533
09:00+9ююз61094100 7.6 1001483
12:00+10зюз5895100 0.3 1002484
15:00+9з4593100 0.4 1005579
18:00+8зсз2493100 0.1 1007328
21:00+8с2494100 0.1 1007297
3 октября, пн
пн300:00+8ссв2494100 0.0 1007260
03:00+8св3694100 0.0 1006327
06:00+8всв51196100 1.5 1004545
09:00+8всв71595100 10.6 1001710
12:00+9в61496100 4.3 998575
15:00+14юв81692100 6.2 995985
18:00+13юв91789100 1.6 9951089
21:00+11ююв91585100 1.8 9961221
4 октября, вт
вт400:00+8ю91487100 0.2 9991206
03:00+8ю81487100 0.4 10011427
06:00+6ю81288100 0.3 10031239
09:00+7ю81383100 0.6 10061221
12:00+10ю8147298 0.1 10081420
15:00+9ю7137955 0.4 1010903
18:00+9ю71384100 0.2 1012691
21:00+9ю61387100 0.5 1012703